Regional Weather Roundup
Issued by NWS Boston, MA

Home | Current Version | Previous Version | Text Only | Print | Product List | Glossary On
Versions: 1 2 3 4 5 6 7 8 9 10 11 12 13 14 15 16 17 18 19 20 21 22 23 24 25 26 27 28 29 30 31 32 33 34 35 36 37 38 39 40 41 42 43 44 45 46 47 48 49 50
000
ASUS41 KBOX 050610
RWRBOX

REGIONAL WEATHER ROUNDUP
NATIONAL WEATHER SERVICE TAUNTON MA
200 AM EDT TUE MAY 05 2015

NOTE:  "FAIR" INDICATES FEW OR NO CLOUDS BELOW 12,000 FEET WITH NO
SIGNIFICANT WEATHER AND/OR OBSTRUCTIONS TO VISIBILITY.  THE FOLLOWING
OBSERVATION LOCATIONS DO NOT REPORT PRESENT WEATHER...PROVINCETOWN...
SMITHFIELD...BLOCK ISLAND...KEENE...AND OXFORD.

MAZALL-050700-
EASTERN MASSACHUSETTS

CITY           SKY/WX    TMP DP  RH WIND       PRES   REMARKS
BOSTON         PTCLDY    67  42  40 SW14      30.08R
6HR MIN TEMP:  64; 6HR MAX TEMP:  75;

BEVERLY        MOCLDY    67  41  38 SW14      30.06R
LAWRENCE       MOCLDY    70  42  36 SW15G23   30.06S
BEDFORD        PTCLDY    68  41  37 SW15G21   30.07R
BLUE HILL        N/A     65  41  41 SW21G30   30.09S
NORWOOD        CLEAR     68  40  35 SW10      30.09S
MARSHFIELD     CLEAR     64  43  45 SW12G28   30.11S
PLYMOUTH       CLEAR     62  43  49 SW14      30.13F
TAUNTON        CLEAR     61  43  51 SW8       30.12F
NEW BEDFORD    CLEAR     59  44  57 SW15G24   30.13F
$$

MAZALL-050700-
CAPE COD AND THE ISLANDS

CITY           SKY/WX    TMP DP  RH WIND       PRES   REMARKS
FALMOUTH         N/A    N/A N/A N/A MISG        N/A
HYANNIS        CLEAR     58  48  69 SW25G37   30.14F
CHATHAM        CLEAR     54  50  86 SW12G21   30.16F
PROVINCETOWN   CLEAR     54  46  76 SW18G25   30.12S
NANTUCKET      CLEAR     53  49  86 SW15      30.18F
MARTHAS VNYRD  CLEAR    N/A N/A N/A SW13G23   30.17F
$$

MAZALL-050700-
CENTRAL AND WESTERN MASSACHUSETTS

CITY           SKY/WX    TMP DP  RH WIND       PRES   REMARKS
WORCESTER      MOCLDY    66  41  40 W18G24    30.11S
6HR MIN TEMP:  63; 6HR MAX TEMP:  72;

FITCHBURG      MOCLDY    70  42  36 SW14G24   30.08S
ORANGE         MOCLDY    62  43  49 SE9       30.10S
SPRINGFIELD    CLOUDY    65  44  47 S8        30.10F
WESTFIELD      MOCLDY    67  44  43 S9        30.11S
NORTH ADAMS    CLOUDY    69  48  47 W10       30.12R
PITTSFIELD     MOCLDY    64  47  53 W6        30.13R
$$

RIZALL-050700-
RHODE ISLAND

CITY           SKY/WX    TMP DP  RH WIND       PRES   REMARKS
PROVIDENCE     CLEAR     65  42  43 SW14G22   30.13F
6HR MIN TEMP:  64; 6HR MAX TEMP:  70;

NEWPORT        CLEAR     53  45  74 S8        30.15F
BLOCK ISLAND   CLEAR     54  45  71 SW20G29   30.17S
SMITHFIELD     CLEAR     64  37  36 SW8G18    30.11F
WESTERLY       CLEAR     59  44  57 SW12      30.17F
$$

CTZALL-050700-
CONNECTICUT

CITY           SKY/WX    TMP DP  RH WIND       PRES   REMARKS
BRADLEY INTL   MOCLDY    67  44  43 S3        30.11S
6HR MIN TEMP:  66; 6HR MAX TEMP:  75;

HARTFORD       PTCLDY    66  43  43 S8        30.13R
BRIDGEPORT     CLEAR     57  47  69 W5        30.15F
DANBURY        PTCLDY    69  43  38 SW13      30.15S
GROTON         CLEAR     58  43  57 SW7       30.16S
NEW HAVEN      PTCLDY    56  46  69 SW7       30.15S
CHESTER        NOT AVBL
MERIDEN          N/A     64  43  46 S7        30.14F
WILLIMANTIC    MOCLDY    68  41  37 SW7       30.14S
OXFORD           N/A     66  43  42 SW7       30.16S
$$

MEZ002-015-021-024-NHZ003-005-008-011-012-014-VTZ005-008-050700-
NORTHERN NEW ENGLAND

CITY           SKY/WX    TMP DP  RH WIND       PRES   REMARKS
PORTLAND ME    CLOUDY    71  42  35 SW12      29.99R
6HR MIN TEMP:  65; 6HR MAX TEMP:  72;

BANGOR ME      CLOUDY    59  45  59 W3        29.94F
CONCORD NH     MOCLDY    70  41  34 SW9G20    30.04R
MANCHESTER NH  CLOUDY    70  41  34 SW7       30.04R
NASHUA NH      CLOUDY    71  43  36 W10G17    30.06S
PORTSMOUTH NH  CLOUDY    69  42  36 SW10G17   30.01R
JAFFREY NH     MOCLDY    64  42  44 S6        30.10R
KEENE NH       CLOUDY    64  43  45 SW9       30.08S
BURLINGTON VT  CLOUDY    63  54  72 NW10      30.09R
MT. WASHINGTON FOG       41  41 100 W63G78      N/A  VSB 0   WCI  26
$$

NYZ052-076-050700-
EASTERN NEW YORK

CITY           SKY/WX    TMP DP  RH WIND       PRES   REMARKS
ALBANY         CLOUDY    69  51  52 W14       30.13R
6HR MIN TEMP:  69; 6HR MAX TEMP:  81;

NEW YORK CITY  PTCLDY    70  45  40 SW14G20   30.15F
6HR MIN TEMP:  70; 6HR MAX TEMP:  74;

$$

ANZALL-050700-
MARINE OBSERVATIONS

STATION/POSITION TIME  TEMP    WIND        PRES    VSBY  WAVE
                       AIR SEA DIR/SP/G                  HT/PER
                 (UTC) (F)     (DEG/KT/KT) (MB)    (MI)  (FT/S)
BOSTON BUOY      0550   57 46  230/ 16/ 17   N/A           3/ 4
BUZZARDS BAY     0500          230/ 17/ 19   N/A
NANTUCKET SOUND  0550   54 50  230/ 16/ 17   N/A           2/ 4
MASS BAY-STELLWA 0504   53 47  210/ 12/ 14   N/A    1 7/8  3/ 5
ISLE OF SHOALS   0500   64     220/ 21/ 22   N/A
S OF BLOCK IS    0508      46                N/A           4/ 4
$$

......................KEY.........................
  SKY/WX - SKY CONDITION/PRESENT WEATHER
  TMP    - TEMPERATURE IN FAHRENHEIT
  DWPT   - DEWPOINT IN FAHRENHEIT
  RH     - RELATIVE HUMIDITY IN PERCENT
  WIND   - DIRECTION AND SPEED IN MPH
  PRES   - MEAN SEA LEVEL PRESSURE IN INCHES OF HG
  WCI    - WIND CHILL INDEX
  VSB    - VISIBILITY IN MILES
  HX     - HEAT INDEX
  TC     - TEMPERATURE IN CELSIUS
  VRB    - VARIABLE WIND DIRECTION
  N/A    - NOT AVAILABLE



USA.gov is the U.S. government's official web portal to all federal, state and local government web resources and services.